Theta_e
348 348 348 346 347 348 349 348 348 351 346 348 347 346 346 346 345 346 346 346 345 343 342 342 343 343 342 339 338 336 333 334 330 328 328 327 329 335 332 328 329 331 334
346 348 348 346 348 348 349 349 348 346 348 348 347 348 347 347 345 345 345 346 345 342 341 341 342 343 342 343 339 338 338 337 335 335 330 328 327 330 337 337 332 329 331
350 347 347 347 346 347 345 348 348 350 345 346 347 349 347 347 346 346 346 345 346 346 345 340 341 342 342 342 341 341 342 339 338 338 339 336 332 328 327 330 331 333 334
346 346 348 347 346 349 348 348 348 344 347 347 346 347 347 346 347 347 346 346 347 349 348 347 346 342 341 341 342 341 341 342 342 340 338 339 340 339 337 332 333 335 340
338 339 342 341 345 347 348 347 347 347 349 346 345 344 345 345 346 345 347 348 346 348 348 349 348 348 344 342 341 341 341 341 341 341 342 340 338 341 341 337 336 340 340
337 341 339 334 335 337 345 347 347 347 347 346 345 345 345 345 346 346 346 346 346 350 343 342 349 349 347 345 343 342 341 341 341 341 341 340 342 338 339 337 337 340 340
340 338 339 343 336 339 342 346 344 345 346 345 344 346 345 346 344 347 348 351 348 346 345 343 347 348 352 349 348 345 343 342 342 341 342 342 341 341 341 338 338 340 341
345 344 343 339 340 341 340 340 339 342 344 345 345 347 343 345 342 347 345 346 348 347 344 349 350 346 344 348 347 343 344 343 341 341 341 341 341 341 342 341 340 341 341
344 344 343 340 340 341 340 340 339 341 342 345 345 345 341 343 342 343 345 345 344 345 348 349 348 346 344 344 345 344 343 341 341 342 341 341 341 339 340 341 341 341 340
342 342 344 341 341 340 340 342 342 343 344 344 345 343 340 340 342 345 347 346 344 343 343 346 343 343 343 342 342 342 342 341 341 341 342 341 341 341 339 339 339 341 339
342 342 341 341 341 342 344 344 344 342 342 343 344 343 342 340 341 338 340 345 343 341 341 342 342 342 343 343 344 342 342 342 341 341 340 340 340 339 339 338 338 337 337
340 340 339 330 333 340 337 338 341 341 342 342 342 342 340 342 344 343 344 344 343 343 340 340 340 341 342 342 342 341 341 340 339 340 340 338 338 338 338 338 337 337 336
343 342 342 337 328 333 338 339 339 338 338 339 340 342 341 345 344 344 343 342 343 341 339 341 341 340 341 341 340 338 338 338 338 337 338 339 338 338 336 335 333 334 335
344 343 343 343 339 338 333 338 340 339 339 339 340 340 341 342 341 341 342 342 344 340 338 339 340 340 340 340 339 337 336 337 337 337 337 337 338 336 334 332 335 336 336
343 340 343 344 341 341 342 338 335 335 339 340 340 340 340 342 346 345 342 342 343 340 338 338 339 338 339 338 337 337 337 338 338 338 337 335 334 333 331 330 332 332 331
343 343 342 342 345 343 342 343 342 340 338 344 345 343 341 341 340 343 342 343 343 343 339 338 338 337 337 337 337 336 336 335 335 334 333 332 331 330 328 326 326 326 326
344 343 343 342 343 342 342 343 342 342 342 341 341 342 343 341 341 342 341 343 342 343 342 337 337 337 336 336 335 335 334 334 333 332 330 329 328 327 326 325 324 324 324
342 343 342 342 341 342 341 341 341 340 341 341 341 340 343 344 343 342 341 343 342 342 342 339 337 337 336 335 334 333 332 330 330 329 328 327 325 324 323 323 322 321 320
344 343 343 342 341 341 340 340 340 340 340 340 341 340 340 340 341 341 341 343 342 343 341 340 338 337 335 335 333 331 330 329 329 328 326 325 324 323 322 320 318 317 315
344 344 343 342 342 341 340 338 337 337 339 339 340 340 340 340 339 339 340 342 343 342 340 340 338 337 335 334 333 332 330 330 328 326 325 324 322 320 318 316 314 310 307
344 343 342 342 341 340 339 339 337 337 338 339 339 339 338 333 331 336 341 340 340 342 341 340 339 337 335 333 333 331 328 328 326 325 323 323 322 320 316 312 310 309 308
343 343 344 342 340 339 337 337 331 337 337 338 338 338 335 327 327 333 337 339 339 339 340 340 340 339 336 336 333 332 329 327 327 326 324 322 320 318 316 312 311 310 308
344 344 344 344 341 338 334 332 330 331 335 336 336 337 336 334 328 330 329 332 337 338 338 337 337 338 338 336 334 332 330 329 329 328 325 325 323 321 319 318 316 311 310
346 346 344 346 340 339 338 334 331 329 331 334 334 335 336 336 335 336 333 334 333 332 334 335 336 336 336 336 334 333 333 330 328 327 326 327 325 322 321 320 318 313 311
348 347 344 346 338 336 336 336 333 330 330 333 334 333 333 335 332 324 334 335 331 332 330 331 334 333 332 332 332 333 330 330 329 328 327 328 326 324 322 320 320 318 313
333 339 338 337 339 335 333 334 334 332 331 334 332 331 326 326 326 322 324 333 333 333 331 326 328 331 332 330 330 330 329 330 329 329 329 328 327 325 324 323 321 320 318
Wind_Speed
13 12 10 8 7 9 8 8 12 9 13 10 11 14 12 11 12 10 13 11 13 14 10 8 11 10 9 8 7 8 10 9 10 10 10 10 9 10 9 9 9 10 10
13 12 12 11 10 10 9 9 10 10 8 7 8 11 12 13 12 13 12 14 15 14 15 12 10 11 10 11 11 12 12 11 11 11 11 11 11 11 12 11 11 11 12
12 12 12 11 13 12 14 8 8 12 11 10 11 9 11 12 14 14 13 12 15 16 14 13 13 12 12 13 14 13 13 14 13 13 13 13 12 12 13 14 15 14 16
18 16 14 13 12 12 12 12 15 13 10 10 10 10 11 10 13 13 15 15 14 15 12 13 14 14 15 15 16 15 13 13 14 15 15 15 17 16 15 15 16 19 19
20 20 17 18 20 12 13 12 12 10 10 13 14 12 13 13 14 15 16 16 16 20 17 16 14 16 15 17 18 18 16 14 12 12 13 17 18 18 17 18 20 19 15
25 21 20 21 21 20 15 17 17 14 15 15 13 14 13 15 15 17 17 18 21 18 25 21 16 14 14 19 22 20 19 16 15 15 15 16 18 20 21 20 19 18 17
22 27 24 18 23 19 20 18 16 18 16 12 18 16 16 17 17 16 17 14 14 20 17 18 19 21 15 20 18 18 21 20 17 16 17 17 17 18 22 20 19 19 17
19 21 26 25 21 19 22 22 20 18 16 17 18 13 14 14 13 15 20 15 15 15 14 12 17 21 21 19 17 17 16 19 18 18 16 17 17 15 15 17 17 17 16
13 15 21 24 21 22 21 21 21 22 25 20 17 12 6 7 7 11 13 14 15 12 11 12 14 15 15 16 15 13 16 15 14 13 14 14 13 12 14 14 16 17 14
10 11 13 18 18 18 21 21 23 25 23 22 18 17 17 15 5 5 3 5 5 6 7 8 11 12 13 14 15 15 12 9 11 12 12 11 11 12 10 11 10 15 7
1 12 11 10 14 16 16 17 20 19 23 21 20 17 15 16 17 15 16 9 10 11 10 9 9 8 9 8 10 9 8 9 8 8 9 9 8 6 4 1 1 3 5
3 6 9 9 9 12 11 10 11 12 13 15 16 15 15 14 12 16 16 13 13 13 11 10 10 7 5 5 6 4 5 7 8 8 8 7 7 7 4 3 3 3 4
3 6 7 7 6 6 8 7 10 11 13 15 15 14 15 14 18 16 16 14 13 12 9 6 7 7 6 6 5 3 5 5 6 7 7 9 7 5 4 4 4 5 6
2 6 4 6 8 9 5 4 6 8 11 12 15 17 18 19 19 20 18 16 12 11 9 9 6 5 8 7 4 4 6 6 6 7 7 6 7 5 5 6 8 10 10
5 8 5 6 9 6 5 7 7 5 8 9 10 11 11 12 11 12 15 16 20 9 14 13 10 9 9 6 4 6 7 8 8 7 7 7 7 7 7 9 10 9 9
8 4 5 5 8 4 3 4 4 7 11 8 7 9 10 11 14 15 14 15 18 14 11 19 16 12 9 9 8 8 8 7 7 7 7 7 7 7 8 8 8 9 9
4 3 5 5 6 6 5 5 7 7 6 8 8 7 7 10 10 11 11 13 14 16 13 17 17 14 11 11 11 9 8 8 8 9 9 7 7 6 6 7 9 9 8
4 4 4 4 4 3 6 6 6 6 6 7 7 8 7 6 9 8 8 12 14 16 15 14 19 18 15 14 12 11 9 5 10 10 9 8 7 6 6 7 7 8 7
5 4 4 3 5 6 5 5 5 6 6 6 6 7 9 7 5 7 6 9 13 14 13 13 16 19 18 16 15 15 14 14 10 10 9 8 7 6 6 6 7 7 7
6 7 6 6 6 6 7 6 7 6 6 6 6 4 3 6 7 8 6 7 13 15 12 13 14 17 21 19 17 17 17 14 10 11 10 8 7 7 7 7 6 6 5
8 9 10 9 7 8 8 8 4 5 6 5 5 1 7 8 6 7 8 8 9 12 12 15 15 18 24 22 21 17 13 12 9 10 9 9 8 9 8 8 6 5 5
9 9 8 9 11 9 14 15 12 4 6 5 6 5 6 5 4 5 8 10 9 10 11 15 15 19 21 24 23 22 22 19 16 17 13 8 8 8 9 9 7 6 5
7 11 10 11 13 12 12 14 12 9 6 6 5 4 3 7 2 4 5 6 10 11 12 11 13 16 21 24 24 23 21 16 17 13 15 12 12 11 10 13 11 8 6
10 10 10 12 15 16 18 17 13 13 10 7 5 5 6 5 5 4 1 3 4 7 10 11 10 11 13 16 22 19 22 22 15 14 14 15 17 15 17 15 15 13 10
8 7 8 12 14 15 16 13 18 14 11 9 7 6 6 5 9 7 5 4 3 4 5 7 8 9 11 11 12 18 19 16 18 19 17 18 19 16 21 22 20 14 15
6 5 7 7 12 13 14 18 17 13 10 10 11 13 9 10 8 7 7 7 5 5 5 7 10 13 14 13 14 14 15 20 16 16 19 18 17 18 16 20 25 21 18
Wind_Direction
199 200 209 217 215 216 230 208 215 215 213 229 227 215 228 232 240 245 265 255 276 266 257 274 255 250 247 252 251 254 256 244 248 253 257 258 256 261 267 272 270 270 272
228 203 207 211 221 230 214 203 238 240 215 224 253 251 229 227 240 239 241 270 276 282 268 265 269 251 249 246 247 249 254 252 254 252 257 257 256 257 260 269 273 272 270
228 195 213 212 212 229 203 214 221 229 229 212 233 236 233 242 244 244 246 241 281 281 288 275 271 260 255 253 249 257 256 254 255 256 253 249 249 249 255 257 262 266 272
210 215 210 214 225 225 224 220 224 235 216 231 232 242 252 250 254 249 255 251 237 276 271 274 270 266 264 259 251 253 256 253 257 257 259 257 254 259 262 262 270 275 281
228 221 218 213 210 217 233 241 238 232 238 230 247 248 251 260 262 263 254 252 262 255 246 252 265 268 256 258 253 250 249 250 257 265 265 262 258 258 257 266 275 278 279
233 234 238 236 226 231 237 240 235 229 230 245 252 257 248 255 260 256 256 249 250 247 249 263 252 238 271 267 257 255 251 248 254 259 259 263 262 258 258 266 274 274 268
229 234 240 236 235 235 222 232 238 225 227 245 249 256 262 264 266 262 262 251 263 262 258 269 274 275 260 279 274 264 261 257 252 261 262 267 267 264 258 261 271 268 269
225 232 236 225 237 239 238 238 240 243 249 246 252 251 266 276 265 257 252 245 252 260 261 251 265 265 265 251 260 269 243 251 255 259 263 265 268 266 264 261 263 260 263
228 237 230 224 237 247 244 250 247 245 246 242 247 240 254 254 276 265 251 256 262 253 263 265 265 265 264 268 265 255 254 265 258 252 257 261 260 256 267 263 264 264 247
231 226 225 231 237 242 251 256 251 251 245 235 244 245 248 255 283 319 207 265 285 280 271 244 276 271 265 267 267 262 264 265 246 250 252 251 248 260 268 275 275 254 238
213 206 206 238 245 245 249 252 251 254 238 238 240 251 247 259 252 254 278 251 283 276 252 250 270 273 266 260 240 259 247 231 231 233 239 236 234 232 207 220 144 176 221
212 199 201 221 247 248 263 258 261 252 240 240 241 242 245 247 248 244 247 255 260 267 259 253 255 261 241 213 224 242 220 212 219 221 210 204 185 162 156 155 150 149 163
242 239 222 243 226 243 260 266 266 257 251 249 248 247 259 252 245 238 245 248 234 249 261 262 247 216 198 202 215 221 185 181 177 179 175 162 172 190 198 206 180 167 176
212 259 269 263 242 244 251 266 270 259 253 253 249 246 244 244 253 252 249 240 217 202 211 180 169 165 185 190 226 205 185 185 179 176 185 195 207 209 194 183 171 165 157
246 253 231 237 258 238 238 239 237 271 266 255 249 256 262 259 262 265 246 234 219 187 196 197 189 207 196 205 216 179 179 175 187 191 198 198 192 190 185 192 197 205 213
218 235 234 229 258 252 254 249 261 271 246 231 248 261 266 257 245 247 255 233 219 202 191 209 209 196 200 187 185 190 170 179 181 182 186 187 189 189 189 194 201 206 210
233 219 232 214 235 248 245 259 241 233 258 242 245 251 262 275 262 259 255 232 222 206 200 210 203 196 188 187 187 186 185 186 191 186 181 174 182 189 198 206 209 211 216
220 201 217 238 236 284 267 270 265 240 246 249 243 249 245 250 269 273 255 226 210 194 219 203 200 198 197 192 191 180 158 167 195 185 183 183 187 194 202 210 214 223 232
221 225 230 242 238 237 254 281 266 256 249 257 257 242 235 256 273 270 248 215 201 196 228 211 207 203 199 197 189 172 168 196 209 189 194 196 195 205 217 222 229 234 238
235 242 244 244 245 249 248 254 265 269 251 254 253 258 279 273 252 260 223 209 199 206 219 207 213 215 209 204 201 201 197 212 198 198 205 209 213 212 219 228 235 238 238
238 245 247 245 249 262 265 241 255 266 258 250 260 256 249 267 264 249 209 217 221 228 224 212 219 216 214 209 208 201 196 188 190 185 201 218 218 225 221 221 222 223 231
238 244 254 260 264 248 248 246 264 240 262 256 256 263 288 295 265 246 227 218 223 232 228 224 218 220 221 221 213 210 197 189 205 210 202 206 209 204 229 218 210 216 217
258 261 264 263 277 273 256 258 253 215 234 244 238 253 247 253 306 264 226 228 224 226 231 244 244 241 232 226 223 219 213 208 212 226 209 184 207 213 223 220 239 228 219
254 266 280 276 289 282 288 263 246 234 221 233 232 230 242 273 211 191 140 195 223 227 232 234 243 245 243 239 231 233 224 217 208 212 213 211 213 206 217 236 244 232 227
267 258 275 283 287 301 296 262 242 238 225 221 233 227 222 235 251 219 170 231 281 214 255 239 217 224 241 235 236 228 224 219 228 219 210 223 225 213 222 227 251 252 234
256 286 295 296 294 305 301 291 232 226 224 236 244 262 242 246 256 243 214 218 216 248 230 244 230 226 231 235 236 234 235 231 218 230 226 217 224 208 217 227 245 240 236